Date String (YYYY-MM-DD hh:mm:ss) UTC,Instrument flags,absolute air pressure of the measurement (hPa),sample flow rate (lpm),inlet stack bypass flow (lpm),air temperature of the measurement (°C),ambient temperature measured by the external sensor (°C),aerosol sample conditioner tube jacket temperature (°C),OPC LED temperature (°C),internal box temperature (°C),relative humidity of the measurement (%),span deviation,mass concentration of particles derived from Lorenz-Mie calculation of OPC scattering (μg/m³),mass concentration of particles derived from Lorenz-Mie calculation of OPC scattering (μg/m³),mass concentration of particles derived from Lorenz-Mie calculation of OPC scattering (μg/m³)
DateTimeUTC,F1_M11,P_M11,Q1_M11,Q2_M11,T1_M11,T2_M11,T3_M11,T4_M11,T5_M11,U1_M11,ZSPAN_M11,X0_M11,X2_M11,X1_M11
2023-07-08 15:00:00,SystemResetWarning,0831.3,5.00,000.00,030.0,027.5,000.0,038.3,031.1,33.8,-001.7,0015.15,0009.27,0008.52
2023-07-08 15:01:00,SystemResetWarning,0831.3,5.01,000.00,030.0,027.7,000.0,038.3,031.1,34.0,-001.4,0014.77,0009.27,0008.51
2023-07-08 15:02:00,SystemResetWarning,0831.3,4.99,000.00,030.0,027.9,000.0,038.4,031.2,33.8,-001.4,0014.78,0009.25,0008.48
2023-07-08 15:03:00,SystemResetWarning,0831.3,5.00,000.00,030.0,028.0,000.0,038.4,031.2,34.0,-001.3,0014.76,0009.24,0008.48
2023-07-08 15:04:00,SystemResetWarning,0831.3,5.00,000.00,030.1,028.1,000.0,038.4,031.2,34.1,-001.4,0014.86,0009.28,0008.50
2023-07-08 15:05:00,SystemResetWarning,0831.3,5.00,000.00,030.1,028.2,000.0,038.4,031.3,33.1,-001.3,0014.97,0009.28,0008.52
2023-07-08 15:06:00,SystemResetWarning,0831.3,5.00,000.00,030.1,028.3,000.0,038.4,031.3,33.0,-001.3,0014.93,0009.28,0008.54
2023-07-08 15:07:00,SystemResetWarning,0831.3,5.00,000.00,030.1,028.4,000.0,038.5,031.3,33.2,-001.0,0014.94,0009.29,0008.54
2023-07-08 15:08:00,SystemResetWarning,0831.3,5.00,000.00,030.1,028.4,000.0,038.5,031.4,33.0,-000.9,0015.31,0009.28,0008.53
2023-07-08 15:09:00,SystemResetWarning,0831.3,4.99,000.00,030.2,028.5,000.0,038.5,031.4,32.9,-000.9,0014.81,0009.27,0008.53
2023-07-08 15:10:00,SystemResetWarning,0831.3,4.99,000.00,030.2,028.5,000.0,038.5,031.4,33.6,-001.1,0014.15,0009.27,0008.53
2023-07-08 15:11:00,SystemResetWarning,0831.2,5.00,000.00,030.2,027.2,000.0,038.4,031.3,33.7,-001.2,0014.09,0009.27,0008.52
2023-07-08 15:12:00,SystemResetWarning,0831.2,5.00,000.00,030.1,025.7,000.0,038.3,031.1,33.3,-001.4,0014.12,0009.27,0008.51
2023-07-08 15:13:00,SystemResetWarning,0831.2,5.00,000.00,030.0,025.3,000.0,038.2,030.9,33.4,-001.6,0014.15,0009.28,0008.51
2023-07-08 15:14:00,SystemResetWarning,0831.1,5.01,000.00,029.9,025.5,000.0,038.2,030.7,33.6,-001.7,0013.99,0009.27,0008.50
2023-07-08 15:15:00,SystemResetWarning,0831.2,5.00,000.00,029.8,025.9,000.0,038.2,030.7,34.2,-001.7,0014.03,0009.22,0008.49
2023-07-08 15:16:00,SystemResetWarning,0831.2,4.99,000.00,029.8,026.3,000.0,038.3,030.8,34.6,-001.7,0013.85,0009.18,0008.48
2023-07-08 15:17:00,SystemResetWarning,0831.2,4.99,000.00,029.7,026.7,000.0,038.3,030.9,35.5,-001.8,0013.86,0009.19,0008.47
2023-07-08 15:18:00,SystemResetWarning,0831.2,5.01,000.00,029.9,027.0,000.0,038.3,031.0,33.6,-001.8,0014.24,0009.21,0008.48
2023-07-08 15:19:00,SystemResetWarning,0831.2,4.99,000.00,030.0,027.3,000.0,038.3,031.1,33.6,-001.9,0014.17,0009.22,0008.48
2023-07-08 15:20:00,SystemResetWarning,0831.2,5.02,000.00,030.0,027.5,000.0,038.3,031.1,33.0,-001.9,0013.97,0009.22,0008.49
2023-07-08 15:21:00,SystemResetWarning,0831.2,5.00,000.00,030.1,027.7,000.0,038.3,031.1,32.9,-002.1,0013.85,0009.18,0008.47
2023-07-08 15:22:00,SystemResetWarning,0831.2,4.99,000.00,030.1,027.9,000.0,038.3,031.2,33.5,-002.3,0013.73,0009.13,0008.43
2023-07-08 15:23:00,SystemResetWarning,0831.3,4.99,000.00,030.1,028.0,000.0,038.3,031.2,33.0,-002.1,0013.66,0009.10,0008.43
2023-07-08 15:24:00,SystemResetWarning,0831.2,5.00,000.00,030.1,028.1,000.0,038.4,031.2,33.0,-002.1,0013.55,0009.04,0008.41
2023-07-08 15:25:00,SystemResetWarning,0831.2,5.01,000.00,030.2,028.2,000.0,038.4,031.3,32.8,-002.2,0013.83,0009.03,0008.40
2023-07-08 15:26:00,SystemResetWarning,0831.2,4.98,000.00,030.2,028.3,000.0,038.4,031.3,33.2,-002.0,0014.95,0009.04,0008.41
2023-07-08 15:27:00,SystemResetWarning,0831.1,5.00,000.00,030.2,028.4,000.0,038.5,031.3,33.8,-002.1,0015.73,0009.10,0008.42
2023-07-08 15:28:00,SystemResetWarning,0831.1,4.99,000.00,030.2,028.4,000.0,038.5,031.3,34.7,-001.9,0016.04,0009.12,0008.42
2023-07-08 15:29:00,SystemResetWarning,0831.1,5.03,000.00,030.3,028.2,000.0,038.5,031.4,34.1,-002.0,0015.74,0009.09,0008.41
2023-07-08 15:30:00,SystemResetWarning,0831.1,4.98,000.00,030.3,026.6,000.0,038.4,031.2,33.3,-002.0,0015.29,0009.04,0008.38
2023-07-08 15:31:00,SystemResetWarning,0831.1,5.00,000.00,030.3,025.5,000.0,038.3,031.0,33.2,-001.8,0015.74,0009.07,0008.37
2023-07-08 15:32:00,SystemResetWarning,0831.1,5.02,000.00,030.2,025.4,000.0,038.3,030.8,33.0,-001.7,0015.80,0009.06,0008.36
2023-07-08 15:33:00,SystemResetWarning,0831.1,5.00,000.00,030.1,025.7,000.0,038.3,030.7,33.4,-001.7,0015.84,0009.06,0008.37
2023-07-08 15:34:00,SystemResetWarning,0831.2,5.00,000.00,030.0,026.1,000.0,038.3,030.8,33.4,-001.8,0015.91,0009.05,0008.36
2023-07-08 15:35:00,SystemResetWarning,0831.1,5.01,000.00,030.0,026.5,000.0,038.3,030.8,33.6,-001.8,0016.33,0009.09,0008.37
2023-07-08 15:36:00,SystemResetWarning,0831.2,5.00,000.00,030.0,026.9,000.0,038.4,030.9,33.6,-001.5,0016.75,0009.11,0008.39
2023-07-08 15:37:00,SystemResetWarning,0831.1,4.99,000.00,030.0,027.2,000.0,038.4,031.0,33.8,-001.5,0015.44,0009.12,0008.40
2023-07-08 15:38:00,SystemResetWarning,0831.1,5.00,000.00,030.0,027.4,000.0,038.4,031.0,34.0,-001.2,0014.71,0009.09,0008.40
2023-07-08 15:39:00,SystemResetWarning,0831.0,5.02,000.00,030.0,027.6,000.0,038.4,031.1,34.8,-001.3,0014.42,0009.10,0008.43
2023-07-08 15:40:00,SystemResetWarning,0831.0,4.96,000.00,030.1,027.8,000.0,038.4,031.2,34.7,-001.1,0014.48,0009.13,0008.46
2023-07-08 15:41:00,SystemResetWarning,0831.0,5.05,000.00,030.3,028.0,000.0,038.4,031.3,34.6,-001.1,0014.66,0009.21,0008.54
2023-07-08 15:42:00,SystemResetWarning,0831.0,4.97,000.00,030.4,028.1,000.0,038.4,031.3,33.8,-001.3,0014.40,0009.24,0008.59
2023-07-08 15:43:00,SystemResetWarning,0831.0,5.03,000.00,030.5,028.2,000.0,038.5,031.4,33.8,-001.4,0014.61,0009.34,0008.65
2023-07-08 15:44:00,SystemResetWarning,0831.0,5.00,000.00,030.6,028.3,000.0,038.5,031.4,33.4,-001.1,0014.68,0009.38,0008.68
2023-07-08 15:45:00,SystemResetWarning,0830.9,4.98,000.00,030.6,028.0,000.0,038.5,031.4,33.4,-001.0,0014.67,0009.43,0008.74
2023-07-08 15:46:00,SystemResetWarning,0831.0,5.00,000.00,030.6,026.6,000.0,038.5,031.3,34.6,-001.2,0015.10,0009.46,0008.76
2023-07-08 15:47:00,SystemResetWarning,0830.9,5.01,000.00,030.6,026.1,000.0,038.4,031.2,33.6,-001.5,0014.77,0009.49,0008.76
2023-07-08 15:48:00,SystemResetWarning,0830.9,5.01,000.00,030.5,026.2,000.0,038.5,031.0,33.8,-001.6,0014.60,0009.52,0008.75
2023-07-08 15:49:00,SystemResetWarning,0830.9,5.00,000.00,030.4,026.5,000.0,038.5,030.9,33.9,-001.8,0014.54,0009.54,0008.77
2023-07-08 15:50:00,SystemResetWarning,0831.0,5.00,000.00,030.4,026.8,000.0,038.6,031.0,33.7,-001.6,0014.61,0009.57,0008.77
2023-07-08 15:51:00,SystemResetWarning,0830.9,5.00,000.00,030.4,027.1,000.0,038.6,031.1,33.7,-001.5,0014.56,0009.53,0008.74
2023-07-08 15:52:00,SystemResetWarning,0830.9,5.00,000.00,030.4,027.4,000.0,038.6,031.1,33.6,-001.3,0014.44,0009.46,0008.68
2023-07-08 15:53:00,SystemResetWarning,0830.9,5.00,000.00,030.4,027.6,000.0,038.6,031.2,34.0,-001.4,0014.33,0009.42,0008.61
2023-07-08 15:54:00,SystemResetWarning,0830.9,5.00,000.00,030.4,027.8,000.0,038.7,031.2,33.4,-001.5,0014.27,0009.37,0008.57
2023-07-08 15:55:00,SystemResetWarning,0830.9,4.98,000.00,030.4,028.0,000.0,038.7,031.3,33.5,-001.6,0014.20,0009.35,0008.57
2023-07-08 15:56:00,SystemResetWarning,0830.9,5.01,000.00,030.4,028.1,000.0,038.7,031.3,33.3,-001.5,0014.25,0009.36,0008.56
2023-07-08 15:57:00,SystemResetWarning,0830.9,5.00,000.00,030.4,028.1,000.0,038.7,031.4,34.0,-001.4,0013.78,0009.37,0008.57
2023-07-08 15:58:00,SystemResetWarning,0830.9,4.99,000.00,030.4,026.9,000.0,038.5,031.3,33.7,-001.1,0014.10,0009.33,0008.57
2023-07-08 15:59:00,SystemResetWarning,0830.9,5.00,000.00,030.3,025.5,000.0,038.4,031.1,34.6,-001.0,0014.13,0009.29,0008.57
